Wind_Speed
48 48 48 47 47 46 45 43 42 41 41 40 40 39 39 38 37 36 35 35 35 35 35 34 35 36 37 38 39 40 41 42 44 45 45 45 45 45 46 46 46 46 46
46 47 47 47 46 47 46 45 44 43 43 43 42 41 41 40 39 38 37 37 37 37 37 37 38 39 40 41 42 43 44 44 46 47 47 46 45 45 46 46 45 45 46
43 43 44 45 45 45 45 45 45 44 44 44 43 42 42 41 40 39 39 39 39 39 39 40 40 41 42 43 44 45 46 47 48 48 49 49 47 46 45 44 45 45 46
43 42 42 42 43 44 44 45 45 45 44 43 43 43 43 42 41 41 41 41 41 41 42 42 43 43 44 45 46 47 48 49 49 49 49 49 48 47 45 44 44 45 46
40 40 41 42 42 43 43 44 45 45 45 45 44 44 44 43 42 42 42 43 43 43 44 44 45 45 46 47 48 49 49 50 50 49 49 48 48 47 46 45 44 46 47
40 40 40 41 42 43 43 44 45 45 45 46 46 46 45 45 44 44 45 45 45 45 45 46 46 46 47 48 49 49 50 50 49 48 48 48 47 46 46 45 45 46 47
43 42 42 42 43 43 44 44 45 45 46 47 47 47 47 46 47 47 46 46 46 46 46 47 47 47 48 49 49 49 49 48 48 47 47 46 46 46 46 46 46 46 46
42 43 44 44 45 45 45 45 45 45 46 46 47 47 47 47 47 47 47 47 47 47 47 47 47 48 49 49 49 48 47 47 47 46 45 45 44 45 46 46 46 46 45
43 44 45 46 47 47 47 46 46 46 46 47 47 47 47 47 47 47 47 47 47 47 47 48 49 49 49 48 47 46 46 46 45 44 44 44 43 44 45 46 45 44 43
44 45 45 47 48 48 49 48 48 48 47 47 47 47 47 47 47 47 47 47 47 48 48 48 49 48 47 46 45 45 44 44 43 43 43 43 43 44 44 44 43 42 41
41 43 44 46 47 49 49 49 48 48 48 48 48 47 47 47 47 47 47 47 47 48 48 47 47 46 45 44 44 43 43 43 43 43 43 43 43 43 43 42 41 41 40
38 40 42 44 45 47 48 48 48 48 47 47 47 47 47 47 47 47 47 47 46 46 46 45 45 44 43 42 42 42 42 42 42 41 41 42 42 41 41 40 39 38 37
36 37 40 42 43 44 45 46 46 46 46 46 46 46 46 46 46 45 45 45 45 45 44 43 42 41 40 40 40 40 40 40 40 39 40 40 40 39 39 38 37 36 36
34 35 37 39 40 42 43 43 44 44 45 44 44 44 44 44 44 45 45 44 43 42 41 40 38 38 38 38 38 38 38 38 38 38 38 38 38 37 36 35 35 34 34
32 34 35 37 38 39 40 41 41 42 42 42 42 42 42 42 42 42 41 41 40 39 38 37 36 36 36 36 36 36 36 36 36 36 36 36 36 35 34 34 34 34 34
31 32 33 34 35 35 36 37 39 39 39 39 40 41 40 40 40 39 38 37 36 35 35 34 34 34 34 34 34 34 34 34 34 35 35 34 34 33 33 34 33 33 33
31 31 32 33 34 34 34 34 35 36 37 37 37 37 36 36 36 35 34 33 33 33 32 32 31 31 31 31 31 32 32 33 33 33 33 33 33 32 33 33 33 33 33
30 31 31 32 32 33 32 32 32 33 33 33 33 33 33 32 32 31 31 31 31 30 29 29 29 28 28 29 30 30 30 31 32 32 32 31 31 32 33 33 33 33 34
28 29 29 29 30 30 30 30 30 30 30 30 30 30 30 29 29 29 28 28 28 27 27 27 26 27 27 27 28 28 29 30 31 31 31 31 31 32 33 33 34 34 34
26 27 27 26 27 27 27 27 27 27 27 27 27 27 27 27 27 26 26 26 26 25 25 25 25 25 26 26 27 28 29 30 30 31 31 32 32 33 33 34 34 35 35
23 24 25 25 25 25 25 26 25 25 25 26 26 26 26 26 26 25 25 25 24 24 24 24 25 25 26 27 28 29 30 30 31 31 32 33 33 34 34 35 35 36 37
22 22 23 23 23 24 24 25 25 25 25 25 25 25 25 25 25 25 25 24 24 24 24 25 25 26 27 28 29 30 30 31 32 32 33 34 34 35 35 36 37 37 38
21 21 21 22 23 23 23 24 25 25 25 24 24 25 25 25 25 25 25 25 25 25 25 26 26 27 28 29 30 30 31 32 33 34 34 35 36 36 37 37 38 38 39
20 21 21 22 23 23 23 24 25 26 26 26 25 25 25 26 26 26 26 26 26 26 27 27 28 29 29 30 31 32 32 33 34 35 35 36 37 37 38 38 39 40 41
22 22 22 23 23 23 25 25 25 25 26 27 27 27 27 27 26 27 27 27 27 28 28 29 29 30 31 32 33 33 34 35 35 36 37 37 38 38 39 40 41 41 42
23 23 24 25 24 25 25 25 25 26 26 27 27 28 28 28 28 28 29 29 30 30 31 31 31 32 33 33 34 35 35 36 37 37 38 38 39 40 40 41 42 42 43
Wind_Direction
230 232 233 235 235 236 236 237 239 243 246 249 252 255 258 261 264 266 268 270 273 275 277 280 282 285 287 288 289 290 292 293 293 294 296 297 298 299 298 298 299 298 298
230 232 234 236 237 238 238 238 240 242 245 248 251 253 256 258 261 263 265 268 271 273 276 278 281 283 285 287 288 289 290 292 293 294 295 296 297 297 298 298 298 298 298
229 233 234 236 237 238 239 240 242 243 245 248 251 253 255 258 260 262 264 267 270 272 275 278 280 282 284 286 287 289 291 292 293 295 296 296 296 296 297 297 298 298 298
232 234 235 236 238 239 240 242 244 245 247 249 252 254 256 258 260 262 265 267 269 272 275 277 280 282 284 286 287 289 291 292 293 294 296 297 297 297 297 297 297 298 298
234 236 237 238 238 239 241 243 245 247 248 250 252 254 256 258 260 262 265 268 270 273 275 277 280 282 284 286 287 289 290 292 293 294 295 296 297 297 298 298 298 299 299
237 238 239 240 240 241 242 243 245 247 249 251 252 254 256 258 261 263 266 268 271 273 275 278 280 282 284 286 287 289 290 292 293 294 295 296 296 297 298 299 300 300 300
238 240 241 241 242 244 245 245 246 247 249 251 253 255 257 259 261 263 265 268 270 272 275 278 280 282 284 286 287 289 290 291 292 293 295 295 296 297 298 299 300 300 301
237 239 240 242 244 245 246 247 248 249 251 252 254 256 258 260 262 264 266 268 271 273 276 278 281 283 285 286 288 289 290 291 292 293 294 295 297 297 298 300 300 301 301
236 236 238 241 243 245 247 248 249 250 252 253 254 256 258 260 262 264 267 269 271 274 277 279 282 284 285 286 288 289 290 291 292 293 294 295 297 297 299 300 300 301 302
239 240 240 240 242 244 246 248 249 250 252 253 255 257 259 261 263 265 268 270 273 275 278 280 282 283 285 286 287 289 290 291 292 293 294 295 296 298 299 299 300 301 302
242 243 243 243 243 245 246 248 249 251 252 253 255 257 259 261 263 266 268 271 273 276 278 280 281 283 284 286 287 288 290 291 292 292 293 294 296 297 297 298 299 300 302
244 245 246 246 247 248 248 249 250 251 253 254 255 257 259 262 264 266 268 271 274 276 278 279 281 282 283 285 286 288 289 290 291 292 293 294 296 296 297 298 298 300 302
244 245 246 247 248 249 250 251 252 253 254 255 256 258 260 262 264 266 269 271 274 275 277 279 280 281 283 284 286 288 289 290 291 292 293 294 295 296 296 297 298 300 302
243 243 245 247 249 250 251 252 252 253 255 256 257 259 261 263 265 267 269 271 273 274 276 277 279 281 283 284 286 288 289 290 291 292 293 294 295 295 296 297 298 300 301
242 243 245 247 249 250 250 251 252 253 254 255 257 259 261 263 265 267 269 270 271 272 274 276 278 280 282 284 285 287 289 290 291 292 293 294 294 295 296 297 298 300 301
242 243 244 245 247 249 250 251 252 253 254 256 257 258 260 262 264 266 267 268 269 271 273 275 277 280 282 283 285 287 289 290 291 293 294 294 295 295 296 297 299 300 301
245 245 245 245 247 248 250 251 252 253 255 256 257 258 260 261 263 263 264 266 268 270 271 274 276 279 281 283 286 288 289 291 292 293 294 295 295 296 297 298 299 300 301
248 248 248 248 249 249 250 251 251 252 253 255 255 256 257 259 260 261 263 264 266 268 270 272 275 279 282 285 288 290 291 292 293 294 295 296 297 297 298 299 299 300 301
248 248 249 250 250 250 250 250 250 250 252 253 253 254 255 257 259 260 262 263 265 267 269 272 275 279 283 286 289 292 293 294 295 295 296 297 297 298 299 299 300 301 301
249 249 250 251 252 251 250 249 249 250 251 252 253 254 255 257 258 260 261 262 263 266 269 272 276 279 283 287 290 292 294 295 295 296 296 297 298 298 300 300 301 301 302
250 249 250 251 251 250 249 249 250 250 252 253 255 255 256 257 257 259 260 261 264 267 270 273 277 280 284 287 291 293 295 295 296 297 297 298 298 299 300 301 302 302 303
251 250 249 250 250 249 249 250 251 252 253 254 255 256 256 257 258 259 261 263 265 268 272 275 278 281 285 288 291 294 295 296 297 298 298 299 299 300 301 302 302 303 303
251 249 249 249 250 250 251 251 252 254 254 255 256 257 257 257 259 261 262 264 266 270 274 277 280 283 286 289 291 294 295 296 297 298 299 299 300 301 301 302 303 303 304
251 251 252 252 252 252 253 255 256 256 256 257 258 259 259 260 261 262 263 265 268 272 275 278 281 284 287 289 291 293 295 296 297 298 299 299 300 301 301 302 303 304 304
253 254 254 255 256 256 256 257 259 260 260 259 260 261 261 262 263 264 266 268 270 273 276 279 282 284 287 290 292 293 295 296 297 298 299 300 300 301 302 302 303 304 304
256 257 257 257 258 259 258 259 261 262 263 263 263 264 264 265 266 266 268 270 273 275 277 280 282 285 288 290 291 293 295 296 297 298 299 300 301 301 302 303 304 304 305
Height
5780 5785 5790 5795 5799 5803 5807 5811 5814 5817 5819 5822 5824 5826 5827 5829 5830 5830 5831 5831 5831 5831 5831 5831 5830 5828 5827 5826 5824 5822 5820 5818 5815 5813 5811 5809 5806 5802 5799 5795 5792 5789 5785
5773 5778 5783 5787 5791 5795 5799 5803 5806 5809 5812 5814 5817 5819 5820 5822 5823 5823 5824 5824 5824 5824 5824 5823 5822 5821 5820 5818 5816 5814 5812 5810 5807 5804 5801 5801 5799 5794 5790 5786 5783 5779 5776
5766 5771 5775 5779 5783 5787 5790 5794 5797 5800 5803 5806 5808 5811 5812 5814 5815 5816 5816 5816 5817 5816 5816 5815 5815 5813 5812 5810 5808 5805 5803 5800 5798 5794 5791 5789 5789 5786 5783 5778 5774 5769 5766
5760 5764 5768 5772 5775 5779 5782 5786 5789 5792 5795 5797 5800 5802 5804 5805 5807 5808 5808 5808 5808 5808 5808 5807 5806 5804 5803 5801 5799 5796 5793 5790 5788 5785 5781 5778 5776 5774 5773 5770 5765 5760 5756
5752 5756 5760 5763 5767 5771 5774 5777 5780 5783 5786 5789 5791 5793 5795 5797 5798 5799 5799 5799 5799 5799 5799 5798 5797 5795 5793 5791 5789 5786 5783 5780 5778 5775 5771 5768 5765 5762 5759 5759 5756 5751 5746
5743 5747 5751 5755 5759 5762 5765 5769 5771 5774 5777 5779 5782 5784 5786 5787 5789 5790 5791 5791 5790 5790 5789 5788 5787 5785 5784 5781 5779 5776 5773 5770 5767 5764 5761 5758 5755 5752 5748 5747 5744 5740 5736
5735 5739 5743 5747 5750 5753 5756 5759 5762 5765 5768 5770 5772 5774 5776 5778 5779 5780 5781 5781 5781 5780 5779 5778 5777 5775 5773 5771 5769 5766 5763 5760 5757 5753 5750 5747 5744 5741 5738 5735 5732 5729 5725
5726 5731 5734 5737 5740 5744 5747 5750 5753 5756 5758 5761 5763 5765 5766 5768 5769 5770 5771 5771 5771 5770 5769 5768 5767 5765 5763 5761 5758 5755 5752 5749 5746 5743 5740 5737 5734 5730 5727 5724 5721 5718 5714
5717 5721 5724 5728 5731 5734 5737 5740 5743 5746 5748 5751 5753 5755 5756 5758 5759 5760 5760 5760 5760 5759 5759 5757 5756 5754 5752 5750 5747 5745 5742 5739 5736 5733 5730 5727 5724 5720 5717 5713 5710 5707 5703
5708 5711 5714 5717 5720 5724 5727 5730 5732 5735 5738 5740 5742 5744 5746 5747 5748 5749 5749 5750 5749 5749 5748 5746 5745 5743 5741 5739 5737 5734 5731 5729 5726 5723 5720 5717 5714 5710 5706 5703 5699 5695 5692
5699 5702 5705 5708 5711 5714 5717 5720 5722 5725 5727 5730 5732 5734 5735 5737 5738 5738 5739 5739 5739 5738 5737 5736 5734 5733 5731 5728 5726 5724 5721 5719 5716 5713 5710 5707 5704 5700 5697 5693 5689 5685 5682
5691 5694 5697 5699 5702 5705 5707 5710 5712 5715 5717 5719 5722 5723 5725 5726 5727 5728 5728 5728 5728 5728 5727 5725 5724 5722 5720 5718 5716 5714 5712 5709 5706 5703 5700 5697 5694 5691 5687 5683 5680 5676 5672
5683 5685 5688 5690 5693 5695 5698 5700 5703 5705 5707 5709 5711 5713 5715 5716 5717 5717 5718 5718 5718 5717 5716 5715 5714 5712 5710 5709 5706 5704 5702 5699 5697 5694 5691 5688 5684 5681 5678 5674 5671 5667 5663
5675 5677 5679 5681 5684 5686 5689 5691 5693 5695 5698 5700 5702 5703 5705 5706 5707 5708 5708 5708 5708 5707 5706 5705 5704 5702 5701 5699 5697 5695 5693 5690 5687 5685 5682 5678 5675 5672 5669 5665 5662 5658 5655
5667 5669 5671 5673 5675 5677 5679 5682 5684 5686 5688 5690 5692 5694 5695 5696 5697 5698 5698 5698 5698 5697 5697 5696 5694 5693 5692 5690 5688 5686 5684 5681 5679 5676 5673 5670 5666 5663 5660 5657 5653 5650 5646
5659 5661 5663 5665 5667 5669 5671 5673 5675 5677 5679 5681 5682 5684 5685 5687 5687 5688 5688 5688 5688 5688 5687 5687 5686 5684 5683 5681 5679 5677 5675 5672 5670 5667 5664 5661 5658 5655 5652 5648 5645 5641 5638
5652 5653 5655 5657 5659 5661 5663 5665 5666 5668 5670 5672 5673 5675 5676 5677 5678 5678 5679 5679 5679 5679 5678 5678 5677 5676 5674 5672 5671 5669 5666 5664 5661 5659 5656 5653 5649 5646 5643 5640 5637 5633 5629
5644 5646 5647 5649 5651 5653 5655 5656 5658 5660 5661 5663 5665 5666 5667 5668 5669 5670 5670 5670 5670 5670 5670 5669 5668 5667 5666 5664 5662 5660 5658 5656 5653 5650 5647 5644 5641 5638 5635 5632 5628 5625 5621
5637 5639 5640 5642 5644 5645 5647 5649 5650 5652 5654 5655 5657 5658 5659 5660 5661 5661 5662 5662 5662 5662 5662 5661 5660 5660 5658 5656 5655 5653 5650 5648 5645 5642 5639 5636 5633 5630 5627 5624 5620 5616 5613
5631 5632 5634 5635 5637 5638 5640 5642 5643 5645 5646 5648 5649 5650 5651 5652 5653 5654 5654 5654 5655 5654 5654 5653 5653 5652 5650 5649 5647 5645 5643 5640 5637 5635 5631 5628 5625 5622 5618 5615 5611 5608 5604
5625 5627 5628 5629 5631 5632 5634 5635 5637 5638 5640 5641 5642 5643 5644 5645 5646 5646 5647 5647 5647 5647 5647 5646 5645 5644 5643 5641 5639 5637 5635 5632 5629 5626 5623 5620 5617 5613 5610 5606 5602 5598 5594
5620 5621 5622 5624 5625 5626 5628 5629 5630 5632 5633 5634 5635 5636 5637 5638 5639 5639 5640 5640 5640 5640 5639 5638 5638 5636 5635 5633 5631 5629 5626 5624 5621 5618 5615 5612 5608 5604 5601 5597 5593 5589 5584
5614 5616 5617 5618 5619 5620 5622 5623 5624 5625 5626 5628 5628 5629 5630 5631 5631 5632 5632 5632 5632 5632 5632 5631 5630 5629 5627 5625 5623 5621 5618 5616 5613 5610 5606 5603 5599 5595 5591 5587 5583 5579 5574
5609 5610 5611 5612 5613 5615 5616 5617 5618 5619 5620 5621 5622 5622 5623 5624 5624 5625 5625 5625 5625 5624 5624 5623 5622 5621 5619 5617 5615 5613 5610 5607 5604 5601 5597 5594 5590 5586 5582 5578 5573 5569 5564
5604 5605 5606 5607 5607 5608 5609 5610 5611 5612 5613 5614 5614 5615 5616 5616 5617 5617 5617 5617 5617 5616 5616 5615 5614 5612 5611 5609 5606 5604 5601 5598 5595 5591 5588 5584 5580 5576 5572 5567 5563 5558 5553
5598 5599 5599 5600 5601 5602 5602 5603 5604 5605 5606 5606 5607 5608 5608 5608 5609 5609 5609 5609 5608 5608 5607 5606 5605 5603 5601 5599 5597 5594 5592 5588 5585 5582 5578 5574 5570 5566 5561 5557 5552 5547 5542